sat.trackr.live / text

‹ back to catalog

STARLINK-33914

NORAD 63774 · 2025-089Y

PAYLOAD ACTIVE UNKNOWN

§ Identity

Operator
Country
US
Launch date
2025-04-29
Launch site
AFETR
Launch vehicle
Mass (kg)
RCS (m²)

Purposes: comms

External: N2YO · Heavens-Above · Gunter

§ Orbital elements

Epoch: 2026-05-25T04:46:14.242080Z

Period
94.27 min
Inclination
43.0003°
Eccentricity
0.0000991
Mean motion
15.27604385 rev/d
Perigee alt
482.3 km
Apogee alt
483.7 km
Semi-major
6,861.1 km
B*
2.7792e-4
RAAN
329.2189°
Arg perigee
280.9296°
Mean anomaly
79.1444°
Rev number
6,070

§ Raw data

STARLINK-339141 63774U 25089Y   26145.19877595  .00007399  00000+0  27792-3 0  99972 63774  43.0003 329.2189 0000991 280.9296  79.1444 15.27604385 60701

JSON: /api/v1/satellites/63774 · /tle

For live sub-satellite position, see the globe view (requires WebGL).

§ Visibility from observer

Set your observer location to see the next 7 days of passes ≥ 10°. The values pass through the URL so the page stays shareable.

No JS? Fill the form by hand. The geolocation button needs JavaScript.